When you browse on this site, cookies collect data to enhance your experience and personalize the content and advertising you see.
Visit our Privacy Policy to learn more. By continuing to use the site, you agree to this use of cookies and data.
  • In United Kingdom
  • List of Countries
  • For 7 days
  • Water Temperature
  • Satellite Maps
  • Weather Map
  • Weather Widgets
  • user-avatar
    Login

    Hourly Weather David

    Today, 20 July, Saturday

    Time Temperature Precipitation Wind Pressure Humidity
    00:00 +27°C° 0 mm 1 mps 753 mmHg 88%
    01:00 +27°C° 0 mm 1 mps 753 mmHg 88%
    02:00 +27°C° 0 mm 1 mps 752 mmHg 88%
    03:00 +27°C° 0 mm 1 mps 752 mmHg 88%
    04:00 +27°C° 0 mm 1 mps 752 mmHg 88%
    05:00 +27°C° 0 mm 1 mps 752 mmHg 87%
    06:00 +27°C° 0 mm 1 mps 752 mmHg 87%
    07:00 +27°C° 0 mm 1 mps 752 mmHg 87%
    08:00 +29°C° 0 mm 1 mps 752 mmHg 80%
    09:00 +30°C° 0 mm 1 mps 753 mmHg 74%
    10:00 +32°C° 0 mm 1 mps 753 mmHg 68%
    11:00 +33°C° 0.1 mm 1 mps 753 mmHg 66%
    12:00 +35°C° 0.1 mm 2 mps 753 mmHg 65%
    13:00 +35°C° 0.1 mm 3 mps 752 mmHg 63%
    14:00 +35°C° 0.5 mm 3 mps 752 mmHg 67%
    15:00 +34°C° 0.5 mm 3 mps 751 mmHg 71%
    16:00 +33°C° 0.5 mm 3 mps 751 mmHg 75%
    17:00 +31°C° 0.6 mm 2 mps 751 mmHg 80%
    18:00 +30°C° 0.6 mm 2 mps 751 mmHg 85%
    19:00 +29°C° 0.6 mm 1 mps 751 mmHg 90%
    20:00 +28°C° 0.1 mm 1 mps 752 mmHg 89%
    21:00 +28°C° 0.1 mm 1 mps 753 mmHg 89%
    22:00 +28°C° 0.1 mm 1 mps 753 mmHg 89%
    23:00 +28°C° 0 mm 1 mps 753 mmHg 88%

    Tomorrow, 21 July, Sunday

    Time Temperature Precipitation Wind Pressure Humidity
    00:00 +27°C° 0 mm 1 mps 753 mmHg 88%
    01:00 +27°C° 0 mm 1 mps 752 mmHg 88%
    02:00 +27°C° 0 mm 1 mps 752 mmHg 87%
    03:00 +27°C° 0 mm 1 mps 752 mmHg 87%
    04:00 +27°C° 0 mm 1 mps 752 mmHg 87%
    05:00 +27°C° 0.1 mm 1 mps 752 mmHg 86%
    06:00 +27°C° 0.1 mm 1 mps 752 mmHg 85%
    07:00 +27°C° 0.1 mm 1 mps 752 mmHg 84%
    08:00 +29°C° 0 mm 1 mps 753 mmHg 78%
    09:00 +31°C° 0 mm 1 mps 753 mmHg 73%
    10:00 +32°C° 0 mm 1 mps 753 mmHg 67%
    11:00 +34°C° 0.3 mm 2 mps 753 mmHg 68%
    12:00 +34°C° 0.3 mm 2 mps 753 mmHg 70%
    13:00 +34°C° 0.3 mm 3 mps 753 mmHg 71%
    14:00 +33°C° 1.1 mm 3 mps 752 mmHg 74%
    15:00 +33°C° 1.1 mm 3 mps 752 mmHg 77%
    16:00 +31°C° 1.1 mm 3 mps 751 mmHg 80%
    17:00 +30°C° 2.1 mm 2 mps 752 mmHg 84%
    18:00 +29°C° 2.1 mm 2 mps 752 mmHg 87%
    19:00 +28°C° 2.1 mm 2 mps 752 mmHg 91%
    20:00 +28°C° 0.1 mm 1 mps 753 mmHg 90%
    21:00 +28°C° 0.1 mm 1 mps 753 mmHg 90%
    22:00 +28°C° 0.1 mm 1 mps 754 mmHg 89%
    23:00 +28°C° 0.4 mm 1 mps 754 mmHg 90%

    Day after tomorrow, 22 July, Monday

    Time Temperature Precipitation Wind Pressure Humidity
    00:00 +27°C° 0.4 mm 1 mps 753 mmHg 90%
    01:00 +27°C° 0.4 mm 1 mps 753 mmHg 90%
    02:00 +27°C° 0.2 mm 1 mps 753 mmHg 90%
    03:00 +27°C° 0.2 mm 1 mps 752 mmHg 89%
    04:00 +27°C° 0.2 mm 1 mps 752 mmHg 89%
    05:00 +27°C° 0.1 mm 1 mps 752 mmHg 89%
    06:00 +27°C° 0.1 mm 1 mps 753 mmHg 88%
    07:00 +27°C° 0.1 mm 1 mps 753 mmHg 88%
    08:00 +29°C° 0.1 mm 1 mps 753 mmHg 82%
    09:00 +30°C° 0.1 mm 1 mps 754 mmHg 76%
    10:00 +32°C° 0.1 mm 1 mps 754 mmHg 69%
    11:00 +32°C° 0.7 mm 2 mps 754 mmHg 72%
    12:00 +32°C° 0.7 mm 2 mps 754 mmHg 74%
    13:00 +33°C° 0.7 mm 3 mps 753 mmHg 76%
    14:00 +31°C° 1.9 mm 3 mps 753 mmHg 78%
    15:00 +30°C° 1.9 mm 3 mps 753 mmHg 81%
    16:00 +30°C° 1.9 mm 2 mps 753 mmHg 83%
    17:00 +29°C° 1.5 mm 2 mps 753 mmHg 86%
    18:00 +28°C° 1.5 mm 2 mps 753 mmHg 89%
    19:00 +27°C° 1.5 mm 1 mps 754 mmHg 92%
    20:00 +27°C° 0.2 mm 1 mps 754 mmHg 93%
    21:00 +27°C° 0.2 mm 1 mps 755 mmHg 93%
    22:00 +27°C° 0.2 mm 1 mps 755 mmHg 93%
    23:00 +27°C° 0.2 mm 1 mps 755 mmHg 93%

    23 July, Tuesday

    Time Temperature Precipitation Wind Pressure Humidity
    00:00 +27°C° 0.2 mm 1 mps 755 mmHg 93%
    01:00 +27°C° 0.2 mm 1 mps 754 mmHg 93%
    02:00 +26°C° 0.1 mm 1 mps 754 mmHg 92%
    03:00 +26°C° 0.1 mm 1 mps 753 mmHg 91%
    04:00 +26°C° 0.1 mm 1 mps 753 mmHg 90%
    05:00 +26°C° 0.1 mm 1 mps 753 mmHg 90%
    06:00 +26°C° 0.1 mm 1 mps 754 mmHg 90%
    07:00 +27°C° 0.1 mm 1 mps 754 mmHg 89%
    08:00 +28°C° 0.1 mm 1 mps 754 mmHg 84%
    09:00 +29°C° 0.1 mm 1 mps 755 mmHg 78%
    10:00 +31°C° 0.1 mm 1 mps 755 mmHg 73%
    11:00 +31°C° 0.4 mm 2 mps 755 mmHg 71%
    12:00 +32°C° 0.4 mm 2 mps 754 mmHg 70%
    13:00 +34°C° 0.4 mm 3 mps 754 mmHg 68%
    14:00 +31°C° 2.5 mm 3 mps 754 mmHg 77%
    15:00 +29°C° 2.5 mm 3 mps 753 mmHg 85%
    16:00 +28°C° 2.5 mm 2 mps 753 mmHg 93%
    17:00 +27°C° 2.7 mm 2 mps 753 mmHg 94%
    18:00 +27°C° 2.7 mm 2 mps 753 mmHg 95%
    19:00 +27°C° 2.7 mm 1 mps 754 mmHg 96%
    20:00 +26°C° 0.9 mm 1 mps 754 mmHg 96%
    21:00 +26°C° 0.9 mm 1 mps 755 mmHg 96%
    22:00 +26°C° 0.9 mm 2 mps 755 mmHg 95%
    23:00 +26°C° 0 mm 1 mps 755 mmHg 94%

    24 July, Wednesday

    Time Temperature Precipitation Wind Pressure Humidity
    00:00 +26°C° 0 mm 1 mps 755 mmHg 93%
    01:00 +26°C° 0 mm 1 mps 754 mmHg 92%
    02:00 +26°C° 0 mm 1 mps 754 mmHg 92%
    03:00 +26°C° 0 mm 1 mps 753 mmHg 92%
    04:00 +26°C° 0 mm 1 mps 753 mmHg 92%
    05:00 +26°C° 0 mm 1 mps 753 mmHg 92%
    06:00 +26°C° 0 mm 1 mps 753 mmHg 91%
    07:00 +26°C° 0 mm 1 mps 753 mmHg 91%
    08:00 +27°C° 0 mm 1 mps 754 mmHg 88%
    09:00 +26°C° 0 mm 0 mps 754 mmHg 85%
    10:00 +26°C° 0 mm 0 mps 755 mmHg 82%
    11:00 +29°C° 0.2 mm 1 mps 754 mmHg 78%
    12:00 +31°C° 0.2 mm 2 mps 754 mmHg 74%
    13:00 +32°C° 0.2 mm 2 mps 753 mmHg 70%
    14:00 +31°C° 1.3 mm 2 mps 753 mmHg 76%
    15:00 +30°C° 1.3 mm 2 mps 752 mmHg 81%
    16:00 +29°C° 1.3 mm 1 mps 752 mmHg 86%
    17:00 +28°C° 0.4 mm 1 mps 752 mmHg 90%
    18:00 +27°C° 0.4 mm 1 mps 753 mmHg 93%
    19:00 +25°C° 0.4 mm 0 mps 753 mmHg 96%
    20:00 +25°C° 0.3 mm 0 mps 753 mmHg 96%
    21:00 +25°C° 0.3 mm 0 mps 754 mmHg 96%
    22:00 +24°C° 0.3 mm 0 mps 754 mmHg 97%
    23:00 +24°C° 0.6 mm 0 mps 754 mmHg 96%

    25 July, Thursday

    Time Temperature Precipitation Wind Pressure Humidity
    00:00 +24°C° 0.6 mm 0 mps 754 mmHg 96%
    01:00 +24°C° 0.6 mm 0 mps 753 mmHg 96%
    02:00 +24°C° 0.7 mm 0 mps 753 mmHg 96%
    03:00 +24°C° 0.7 mm 0 mps 753 mmHg 95%
    04:00 +24°C° 0.7 mm 0 mps 752 mmHg 95%
    05:00 +24°C° 0 mm 0 mps 752 mmHg 95%
    06:00 +24°C° 0 mm 0 mps 753 mmHg 94%
    07:00 +24°C° 0 mm 0 mps 753 mmHg 94%
    08:00 +25°C° 0.1 mm 0 mps 753 mmHg 91%
    09:00 +25°C° 0.1 mm 0 mps 754 mmHg 89%
    10:00 +28°C° 0.1 mm 1 mps 754 mmHg 87%
    11:00 +29°C° 1.1 mm 1 mps 754 mmHg 84%
    12:00 +30°C° 1.1 mm 1 mps 754 mmHg 81%
    13:00 +30°C° 1.1 mm 1 mps 753 mmHg 78%
    14:00 +30°C° 1.2 mm 1 mps 753 mmHg 82%
    15:00 +29°C° 1.2 mm 1 mps 752 mmHg 86%
    16:00 +28°C° 1.2 mm 1 mps 752 mmHg 90%
    17:00 +28°C° 1.2 mm 1 mps 753 mmHg 91%
    18:00 +27°C° 1.2 mm 1 mps 753 mmHg 92%
    19:00 +27°C° 1.2 mm 1 mps 753 mmHg 92%
    20:00 +27°C° 1.5 mm 1 mps 754 mmHg 93%
    21:00 +26°C° 1.5 mm 1 mps 754 mmHg 94%
    22:00 +26°C° 1.5 mm 2 mps 754 mmHg 94%
    23:00 +26°C° 0.6 mm 1 mps 754 mmHg 94%
    Show more